User: anonymous   Login
Location: Unspecified
(0.0000°N, 0.0000°E)
Time: 01:38:15
(UTC+02:00)
Language:

Meteor 2-8 Rocket - Orbit

View from above orbital plane
View from above orbital plane
View from above satellite
View from above satellite

Ground track
Ground track

The orbit data is extracted from the following two-line orbital elements,

1 13114U 82025B   17292.56521618 +.00000017 +00000-0 +13916-5 0  9995
2 13114 082.5364 103.8015 0015012 156.3756 248.0760 13.84662734797341
Epoch (UTC): 19 October 2017 13:33:54
Eccentricity: 0.0015012
inclination: 82.5364°
perigee height: 936 km
apogee height: 958 km
right ascension of ascending node: 103.8015°
argument of perigee: 156.3756°
revolutions per day: 13.84662734
mean anomaly at epoch: 248.0760°
orbit number at epoch: 79734

The dashed part of the orbit path shows where the satellite is in the earth's shadow,  

DLR